| time (UTC) | temp F | wind direction | speed MPH | gust MPH | rain 1hr in | rain 24hr in | rain mn in | humidity % | barometer mb |
| 20260905230402 | 85 | 163 | 15.0 | 16.0 | 0.00 | 0.00 | 0.00 | 17 | 1016.7 |
| 20260905225901 | 85 | 147 | 9.0 | 10.0 | 0.00 | 0.00 | 0.00 | 18 | 1016.4 |
| 20260905225356 | 85 | 186 | 5.0 | 17.0 | 0.00 | 0.00 | 0.00 | 17 | 1016.4 |
| 20260905224851 | 85 | 183 | 9.0 | 13.0 | 0.00 | 0.00 | 0.00 | 17 | 1016.3 |
| 20260905224348 | 85 | 148 | 3.0 | 9.0 | 0.00 | 0.00 | 0.00 | 17 | 1016.6 |
| 20260905223842 | 85 | 168 | 11.0 | 17.0 | 0.00 | 0.00 | 0.00 | 17 | 1016.7 |
| 20260905223339 | 85 | 145 | 6.0 | 6.0 | 0.00 | 0.00 | 0.00 | 19 | 1016.9 |
| 20260905222834 | 85 | 193 | 7.0 | 14.0 | 0.00 | 0.00 | 0.00 | 18 | 1016.8 |
| 20260905222333 | 85 | 205 | 6.0 | 19.0 | 0.00 | 0.00 | 0.00 | 16 | 1016.6 |
| 20260905221829 | 85 | 194 | 11.0 | 17.0 | 0.00 | 0.00 | 0.00 | 18 | 1016.8 |
| 20260905221326 | 85 | 193 | 8.0 | 9.0 | 0.00 | 0.00 | 0.00 | 18 | 1016.8 |
| 20260905220821 | 85 | 167 | 4.0 | 11.0 | 0.00 | 0.00 | 0.00 | 17 | 1016.8 |
| 20260905220317 | 84 | 212 | 8.0 | 16.0 | 0.00 | 0.00 | 0.00 | 17 | 1017.0 |
| 20260905215816 | 84 | 174 | 6.0 | 16.0 | 0.00 | 0.00 | 0.00 | 17 | 1016.9 |
| 20260905215312 | 84 | 170 | 15.0 | 15.0 | 0.00 | 0.00 | 0.00 | 19 | 1017.4 |
| 20260905214808 | 84 | 175 | 13.0 | 16.0 | 0.00 | 0.00 | 0.00 | 19 | 1017.1 |
| 20260905214303 | 84 | 140 | 13.0 | 19.0 | 0.00 | 0.00 | 0.00 | 17 | 1017.3 |
| 20260905213758 | 84 | 164 | 3.0 | 8.0 | 0.00 | 0.00 | 0.00 | 20 | 1017.1 |
| 20260905213255 | 84 | 109 | 10.0 | 15.0 | 0.00 | 0.00 | 0.00 | 21 | 1017.1 |
| 20260905212749 | 84 | 153 | 4.0 | 15.0 | 0.00 | 0.00 | 0.00 | 20 | 1017.5 |
| 20260905212249 | 84 | 227 | 3.0 | 7.0 | 0.00 | 0.00 | 0.00 | 21 | 1017.5 |
| 20260905211749 | 83 | 209 | 9.0 | 15.0 | 0.00 | 0.00 | 0.00 | 20 | 1017.8 |
| 20260905211244 | 83 | 143 | 9.0 | 22.0 | 0.00 | 0.00 | 0.00 | 20 | 1017.6 |
| 20260905210742 | 83 | 137 | 17.0 | 19.0 | 0.00 | 0.00 | 0.00 | 20 | 1017.5 |
| 20260905210240 | 83 | 116 | 9.0 | 18.0 | 0.00 | 0.00 | 0.00 | 20 | 1017.7 |
| 20260905205739 | 83 | 147 | 12.0 | 18.0 | 0.00 | 0.00 | 0.00 | 21 | 1017.6 |
| 20260905205234 | 83 | 137 | 17.0 | 24.0 | 0.00 | 0.00 | 0.00 | 22 | 1017.7 |
| 20260905204733 | 83 | 104 | 3.0 | 17.0 | 0.00 | 0.00 | 0.00 | 20 | 1017.8 |
| 20260905204230 | 83 | 148 | 10.0 | 17.0 | 0.00 | 0.00 | 0.00 | 21 | 1017.7 |
| 20260905203729 | 84 | 144 | 12.0 | 15.0 | 0.00 | 0.00 | 0.00 | 21 | 1017.9 |
| 20260905203224 | 84 | 186 | 5.0 | 13.0 | 0.00 | 0.00 | 0.00 | 20 | 1018.1 |
| 20260905202720 | 83 | 148 | 5.0 | 13.0 | 0.00 | 0.00 | 0.00 | 22 | 1018.1 |
| 20260905202215 | 83 | 168 | 8.0 | 20.0 | 0.00 | 0.00 | 0.00 | 21 | 1017.8 |
| 20260905201710 | 84 | 156 | 11.0 | 22.0 | 0.00 | 0.00 | 0.00 | 21 | 1018.1 |
| 20260905201210 | 83 | 146 | 8.0 | 14.0 | 0.00 | 0.00 | 0.00 | 21 | 1017.9 |
| 20260905200706 | 83 | 141 | 8.0 | 24.0 | 0.00 | 0.00 | 0.00 | 21 | 1018.1 |
| 20260905200201 | 83 | 161 | 12.0 | 21.0 | 0.00 | 0.00 | 0.00 | 22 | 1018.2 |
| 20260905195659 | 83 | 141 | 10.0 | 22.0 | 0.00 | 0.00 | 0.00 | 23 | 1018.2 |
| 20260905195154 | 83 | 188 | 12.0 | 23.0 | 0.00 | 0.00 | 0.00 | 21 | 1018.3 |
| 20260905194650 | 83 | 182 | 7.0 | 28.0 | 0.00 | 0.00 | 0.00 | 20 | 1018.2 |
| 20260905194149 | 83 | 184 | 11.0 | 18.0 | 0.00 | 0.00 | 0.00 | 21 | 1018.4 |
| 20260905193644 | 83 | 154 | 8.0 | 25.0 | 0.00 | 0.00 | 0.00 | 20 | 1018.5 |
| 20260905193138 | 82 | 138 | 5.0 | 18.0 | 0.00 | 0.00 | 0.00 | 22 | 1018.5 |
| 20260905192634 | 82 | 157 | 18.0 | 29.0 | 0.00 | 0.00 | 0.00 | 20 | 1018.2 |
| 20260905192131 | 82 | 168 | 10.0 | 18.0 | 0.00 | 0.00 | 0.00 | 21 | 1018.5 |
| 20260905191630 | 82 | 174 | 9.0 | 20.0 | 0.00 | 0.00 | 0.00 | 20 | 1018.5 |
| 20260905191128 | 82 | 148 | 9.0 | 22.0 | 0.00 | 0.00 | 0.00 | 20 | 1018.9 |
| 20260905190627 | 83 | 161 | 7.0 | 22.0 | 0.00 | 0.00 | 0.00 | 21 | 1019.2 |
| 20260905190126 | 82 | 196 | 17.0 | 23.0 | 0.00 | 0.00 | 0.00 | 22 | 1019.0 |
| 20260905185625 | 82 | 149 | 14.0 | 19.0 | 0.00 | 0.00 | 0.00 | 21 | 1019.2 |
| 20260905185120 | 82 | 135 | 4.0 | 14.0 | 0.00 | 0.00 | 0.00 | 23 | 1019.2 |
| 20260905184614 | 82 | 121 | 17.0 | 21.0 | 0.00 | 0.00 | 0.00 | 22 | 1019.0 |
| 20260905184113 | 82 | 157 | 18.0 | 18.0 | 0.00 | 0.00 | 0.00 | 22 | 1019.3 |
| 20260905183612 | 81 | 115 | 12.0 | 13.0 | 0.00 | 0.00 | 0.00 | 22 | 1019.3 |
| 20260905183108 | 81 | 130 | 18.0 | 23.0 | 0.00 | 0.00 | 0.00 | 22 | 1019.5 |
| 20260905182608 | 82 | 113 | 11.0 | 15.0 | 0.00 | 0.00 | 0.00 | 21 | 1019.3 |
| 20260905182102 | 81 | 189 | 11.0 | 21.0 | 0.00 | 0.00 | 0.00 | 22 | 1019.5 |
| 20260905181602 | 82 | 190 | 9.0 | 25.0 | 0.00 | 0.00 | 0.00 | 21 | 1019.6 |
| 20260905181101 | 82 | 197 | 16.0 | 20.0 | 0.00 | 0.00 | 0.00 | 23 | 1019.8 |
| 20260905180556 | 82 | 181 | 4.0 | 12.0 | 0.00 | 0.00 | 0.00 | 22 | 1019.5 |
| 20260905180052 | 82 | 162 | 8.0 | 17.0 | 0.00 | 0.00 | 0.00 | 24 | 1019.7 |
| 20260905175551 | 81 | 175 | 10.0 | 13.0 | 0.00 | 0.00 | 0.00 | 22 | 1019.5 |
| 20260905175047 | 82 | 182 | 6.0 | 15.0 | 0.00 | 0.00 | 0.00 | 24 | 1019.9 |
| 20260905174542 | 82 | 198 | 9.0 | 23.0 | 0.00 | 0.00 | 0.00 | 23 | 1019.6 |
| 20260905174037 | 82 | 185 | 4.0 | 18.0 | 0.00 | 0.00 | 0.00 | 22 | 1019.6 |
| 20260905173534 | 81 | 130 | 8.0 | 21.0 | 0.00 | 0.00 | 0.00 | 22 | 1019.7 |
| 20260905173029 | 81 | 162 | 7.0 | 26.0 | 0.00 | 0.00 | 0.00 | 21 | 1019.7 |
| 20260905172527 | 81 | 199 | 6.0 | 16.0 | 0.00 | 0.00 | 0.00 | 24 | 1019.5 |
| 20260905172023 | 80 | 160 | 6.0 | 21.0 | 0.00 | 0.00 | 0.00 | 22 | 1019.5 |
| 20260905171519 | 79 | 139 | 9.0 | 19.0 | 0.00 | 0.00 | 0.00 | 22 | 1019.6 |
| 20260905171015 | 80 | 138 | 14.0 | 21.0 | 0.00 | 0.00 | 0.00 | 22 | 1019.9 |
| 20260905170511 | 80 | 139 | 8.0 | 18.0 | 0.00 | 0.00 | 0.00 | 22 | 1020.0 |
| 20260905170006 | 80 | 151 | 3.0 | 15.0 | 0.00 | 0.00 | 0.00 | 23 | 1019.9 |
| 20260905165501 | 80 | 159 | 8.0 | 14.0 | 0.00 | 0.00 | 0.00 | 25 | 1019.8 |
| 20260905164956 | 79 | 180 | 9.0 | 16.0 | 0.00 | 0.00 | 0.00 | 24 | 1019.8 |
| 20260905164456 | 79 | 137 | 13.0 | 19.0 | 0.00 | 0.00 | 0.00 | 22 | 1019.8 |
| 20260905163956 | 80 | 153 | 10.0 | 17.0 | 0.00 | 0.00 | 0.00 | 23 | 1019.8 |
| 20260905163453 | 80 | 142 | 11.0 | 21.0 | 0.00 | 0.00 | 0.00 | 24 | 1019.9 |
| 20260905162948 | 79 | 158 | 14.0 | 19.0 | 0.00 | 0.00 | 0.00 | 23 | 1019.5 |
| 20260905162443 | 79 | 134 | 10.0 | 18.0 | 0.00 | 0.00 | 0.00 | 24 | 1019.7 |
| 20260905161938 | 79 | 164 | 11.0 | 17.0 | 0.00 | 0.00 | 0.00 | 25 | 1019.6 |
| 20260905161437 | 79 | 145 | 18.0 | 21.0 | 0.00 | 0.00 | 0.00 | 25 | 1019.7 |
| 20260905160935 | 79 | 152 | 13.0 | 20.0 | 0.00 | 0.00 | 0.00 | 24 | 1019.7 |
| 20260905160430 | 79 | 167 | 10.0 | 19.0 | 0.00 | 0.00 | 0.00 | 24 | 1020.0 |
| 20260905155929 | 79 | 133 | 8.0 | 22.0 | 0.00 | 0.00 | 0.00 | 23 | 1019.5 |
| 20260905155424 | 79 | 109 | 6.0 | 9.0 | 0.00 | 0.00 | 0.00 | 26 | 1019.7 |
| 20260905154922 | 78 | 172 | 8.0 | 21.0 | 0.00 | 0.00 | 0.00 | 24 | 1019.6 |
| 20260905154418 | 79 | 128 | 8.0 | 19.0 | 0.00 | 0.00 | 0.00 | 24 | 1019.6 |
| 20260905153914 | 78 | 139 | 5.0 | 14.0 | 0.00 | 0.00 | 0.00 | 25 | 1019.6 |
| 20260905153410 | 77 | 199 | 3.0 | 9.0 | 0.00 | 0.00 | 0.00 | 24 | 1019.5 |
| 20260905152909 | 78 | 160 | 10.0 | 20.0 | 0.00 | 0.00 | 0.00 | 25 | 1019.5 |
| 20260905152409 | 78 | 169 | 10.0 | 18.0 | 0.00 | 0.00 | 0.00 | 25 | 1019.7 |
| 20260905151904 | 77 | 170 | 6.0 | 10.0 | 0.00 | 0.00 | 0.00 | 25 | 1019.6 |
| 20260905151400 | 76 | 144 | 6.0 | 11.0 | 0.00 | 0.00 | 0.00 | 26 | 1019.6 |
| 20260905150855 | 75 | 153 | 9.0 | 14.0 | 0.00 | 0.00 | 0.00 | 27 | 1019.7 |
| 20260905150354 | 73 | 157 | 5.0 | 13.0 | 0.00 | 0.00 | 0.00 | 27 | 1019.6 |
| 20260905145851 | 73 | 160 | 7.0 | 17.0 | 0.00 | 0.00 | 0.00 | 27 | 1019.7 |
| 20260905145346 | 73 | 152 | 7.0 | 11.0 | 0.00 | 0.00 | 0.00 | 28 | 1019.2 |
| 20260905144845 | 72 | 157 | 9.0 | 16.0 | 0.00 | 0.00 | 0.00 | 29 | 1019.6 |
| 20260905144341 | 72 | 137 | 9.0 | 18.0 | 0.00 | 0.00 | 0.00 | 30 | 1019.5 |
| 20260905143839 | 72 | 153 | 8.0 | 17.0 | 0.00 | 0.00 | 0.00 | 29 | 1019.5 |
| 20260905143334 | 72 | 160 | 15.0 | 20.0 | 0.00 | 0.00 | 0.00 | 29 | 1019.3 |
| 20260905142833 | 71 | 150 | 11.0 | 20.0 | 0.00 | 0.00 | 0.00 | 28 | 1019.2 |
| 20260905142327 | 71 | 146 | 10.0 | 13.0 | 0.00 | 0.00 | 0.00 | 30 | 1019.2 |
| 20260905141823 | 70 | 145 | 11.0 | 14.0 | 0.00 | 0.00 | 0.00 | 30 | 1018.9 |
| 20260905141318 | 71 | 177 | 11.0 | 12.0 | 0.00 | 0.00 | 0.00 | 29 | 1019.2 |
| 20260905140814 | 70 | 146 | 10.0 | 14.0 | 0.00 | 0.00 | 0.00 | 29 | 1019.1 |
| 20260905140308 | 70 | 156 | 10.0 | 16.0 | 0.00 | 0.00 | 0.00 | 29 | 1019.1 |
| 20260905135807 | 69 | 160 | 9.0 | 12.0 | 0.00 | 0.00 | 0.00 | 30 | 1018.8 |
| 20260905135306 | 70 | 180 | 4.0 | 13.0 | 0.00 | 0.00 | 0.00 | 29 | 1018.9 |
| 20260905134803 | 69 | 161 | 11.0 | 20.0 | 0.00 | 0.00 | 0.00 | 28 | 1018.9 |
| 20260905134302 | 68 | 132 | 9.0 | 13.0 | 0.00 | 0.00 | 0.00 | 30 | 1018.8 |
| 20260905133756 | 68 | 154 | 9.0 | 11.0 | 0.00 | 0.00 | 0.00 | 30 | 1018.6 |
| 20260905133252 | 69 | 158 | 6.0 | 15.0 | 0.00 | 0.00 | 0.00 | 28 | 1018.6 |
| 20260905132751 | 69 | 173 | 9.0 | 16.0 | 0.00 | 0.00 | 0.00 | 29 | 1018.6 |
| 20260905132241 | 68 | 178 | 11.0 | 15.0 | 0.00 | 0.00 | 0.00 | 30 | 1018.5 |
| 20260905131735 | 68 | 176 | 9.0 | 17.0 | 0.00 | 0.00 | 0.00 | 29 | 1018.6 |
| 20260905131231 | 67 | 182 | 10.0 | 15.0 | 0.00 | 0.00 | 0.00 | 30 | 1018.3 |
| 20260905130726 | 68 | 184 | 9.0 | 13.0 | 0.00 | 0.00 | 0.00 | 29 | 1018.4 |
| 20260905130225 | 68 | 188 | 9.0 | 11.0 | 0.00 | 0.00 | 0.00 | 30 | 1018.4 |
| 20260905125721 | 67 | 168 | 9.0 | 15.0 | 0.00 | 0.00 | 0.00 | 29 | 1018.5 |
| 20260905125216 | 67 | 162 | 9.0 | 11.0 | 0.00 | 0.00 | 0.00 | 30 | 1018.3 |
| 20260905124713 | 68 | 164 | 10.0 | 15.0 | 0.00 | 0.00 | 0.00 | 29 | 1018.2 |
| 20260905124208 | 68 | 149 | 12.0 | 15.0 | 0.00 | 0.00 | 0.00 | 29 | 1018.2 |
| 20260905123708 | 68 | 164 | 6.0 | 13.0 | 0.00 | 0.00 | 0.00 | 29 | 1018.4 |
| 20260905123205 | 68 | 156 | 11.0 | 13.0 | 0.00 | 0.00 | 0.00 | 29 | 1018.3 |
| 20260905122704 | 68 | 151 | 14.0 | 14.0 | 0.00 | 0.00 | 0.00 | 30 | 1018.2 |
| 20260905122200 | 68 | 160 | 8.0 | 15.0 | 0.00 | 0.00 | 0.00 | 30 | 1018.3 |
| 20260905121700 | 68 | 158 | 11.0 | 19.0 | 0.00 | 0.00 | 0.00 | 31 | 1018.1 |
| 20260905121155 | 68 | 160 | 11.0 | 15.0 | 0.00 | 0.00 | 0.00 | 30 | 1018.1 |
| 20260905120655 | 68 | 167 | 12.0 | 14.0 | 0.00 | 0.00 | 0.00 | 33 | 1018.2 |
| 20260905120150 | 69 | 141 | 14.0 | 19.0 | 0.00 | 0.00 | 0.00 | 32 | 1018.1 |
| 20260905115649 | 69 | 159 | 11.0 | 15.0 | 0.00 | 0.00 | 0.00 | 28 | 1017.9 |
| 20260905115144 | 69 | 150 | 11.0 | 15.0 | 0.00 | 0.00 | 0.00 | 32 | 1018.1 |
| 20260905114645 | 69 | 159 | 10.0 | 16.0 | 0.00 | 0.00 | 0.00 | 28 | 1018.1 |
| 20260905114143 | 70 | 139 | 13.0 | 17.0 | 0.00 | 0.00 | 0.00 | 27 | 1018.1 |
| 20260905113643 | 70 | 160 | 13.0 | 17.0 | 0.00 | 0.00 | 0.00 | 28 | 1017.9 |
| 20260905113138 | 70 | 161 | 9.0 | 14.0 | 0.00 | 0.00 | 0.00 | 28 | 1018.1 |
| 20260905112633 | 70 | 146 | 15.0 | 15.0 | 0.00 | 0.00 | 0.00 | 27 | 1018.2 |
| 20260905112129 | 70 | 171 | 10.0 | 20.0 | 0.00 | 0.00 | 0.00 | 27 | 1018.1 |
| 20260905111624 | 70 | 148 | 15.0 | 21.0 | 0.00 | 0.00 | 0.00 | 27 | 1017.9 |
| 20260905111123 | 71 | 167 | 12.0 | 17.0 | 0.00 | 0.00 | 0.00 | 28 | 1018.1 |
| 20260905110622 | 71 | 147 | 14.0 | 15.0 | 0.00 | 0.00 | 0.00 | 27 | 1017.8 |
| 20260905110117 | 71 | 155 | 13.0 | 18.0 | 0.00 | 0.00 | 0.00 | 27 | 1018.1 |
| 20260905105617 | 71 | 165 | 15.0 | 16.0 | 0.00 | 0.00 | 0.00 | 27 | 1017.8 |
| 20260905105116 | 70 | 136 | 17.0 | 19.0 | 0.00 | 0.00 | 0.00 | 28 | 1017.9 |
| 20260905104612 | 70 | 171 | 11.0 | 14.0 | 0.00 | 0.00 | 0.00 | 29 | 1017.7 |
| 20260905104113 | 71 | 153 | 7.0 | 17.0 | 0.00 | 0.00 | 0.00 | 29 | 1018.2 |
| 20260905103608 | 71 | 139 | 15.0 | 21.0 | 0.00 | 0.00 | 0.00 | 29 | 1017.8 |
| 20260905103104 | 70 | 148 | 15.0 | 20.0 | 0.00 | 0.00 | 0.00 | 30 | 1017.9 |
| 20260905102559 | 70 | 154 | 12.0 | 19.0 | 0.00 | 0.00 | 0.00 | 30 | 1018.1 |
| 20260905102056 | 71 | 166 | 9.0 | 13.0 | 0.00 | 0.00 | 0.00 | 30 | 1017.9 |
| 20260905101554 | 70 | 156 | 14.0 | 19.0 | 0.00 | 0.00 | 0.00 | 31 | 1018.1 |
| 20260905101052 | 70 | 152 | 12.0 | 16.0 | 0.00 | 0.00 | 0.00 | 31 | 1017.9 |
| 20260905100549 | 70 | 161 | 11.0 | 13.0 | 0.00 | 0.00 | 0.00 | 31 | 1017.9 |
| 20260905100049 | 70 | 137 | 9.0 | 18.0 | 0.00 | 0.00 | 0.00 | 31 | 1017.9 |
| 20260905095543 | 70 | 145 | 7.0 | 17.0 | 0.00 | 0.00 | 0.00 | 32 | 1017.8 |
| 20260905095039 | 71 | 126 | 13.0 | 16.0 | 0.00 | 0.00 | 0.00 | 33 | 1017.7 |
| 20260905094534 | 70 | 174 | 9.0 | 18.0 | 0.00 | 0.00 | 0.00 | 33 | 1017.6 |
| 20260905094033 | 70 | 147 | 10.0 | 14.0 | 0.00 | 0.00 | 0.00 | 36 | 1017.7 |
| 20260905093533 | 70 | 134 | 10.0 | 15.0 | 0.00 | 0.00 | 0.00 | 37 | 1017.6 |
| 20260905093030 | 71 | 153 | 13.0 | 16.0 | 0.00 | 0.00 | 0.00 | 33 | 1017.6 |
| 20260905092529 | 71 | 135 | 15.0 | 18.0 | 0.00 | 0.00 | 0.00 | 34 | 1017.5 |
| 20260905092025 | 71 | 166 | 10.0 | 17.0 | 0.00 | 0.00 | 0.00 | 33 | 1017.6 |
| 20260905091524 | 71 | 181 | 10.0 | 15.0 | 0.00 | 0.00 | 0.00 | 33 | 1017.4 |
| 20260905091019 | 72 | 145 | 15.0 | 17.0 | 0.00 | 0.00 | 0.00 | 33 | 1017.4 |
| 20260905090519 | 72 | 157 | 10.0 | 18.0 | 0.00 | 0.00 | 0.00 | 33 | 1017.4 |
| 20260905090014 | 72 | 163 | 9.0 | 15.0 | 0.00 | 0.00 | 0.00 | 32 | 1017.5 |
| 20260905085512 | 72 | 164 | 6.0 | 16.0 | 0.00 | 0.00 | 0.00 | 33 | 1017.4 |
| 20260905085009 | 72 | 154 | 14.0 | 17.0 | 0.00 | 0.00 | 0.00 | 32 | 1017.0 |
| 20260905084509 | 72 | 158 | 13.0 | 18.0 | 0.00 | 0.00 | 0.00 | 32 | 1017.1 |
| 20260905084009 | 72 | 168 | 11.0 | 15.0 | 0.00 | 0.00 | 0.00 | 32 | 1017.4 |
| 20260905083504 | 73 | 164 | 12.0 | 14.0 | 0.00 | 0.00 | 0.00 | 32 | 1017.4 |
| 20260905083000 | 72 | 161 | 8.0 | 17.0 | 0.00 | 0.00 | 0.00 | 32 | 1017.1 |
| 20260905082455 | 72 | 149 | 12.0 | 15.0 | 0.00 | 0.00 | 0.00 | 32 | 1017.1 |
| 20260905081950 | 73 | 159 | 9.0 | 16.0 | 0.00 | 0.00 | 0.00 | 31 | 1016.9 |
| 20260905081445 | 73 | 180 | 10.0 | 16.0 | 0.00 | 0.00 | 0.00 | 32 | 1016.8 |
| 20260905080944 | 73 | 142 | 16.0 | 17.0 | 0.00 | 0.00 | 0.00 | 31 | 1017.1 |
| 20260905080439 | 73 | 155 | 12.0 | 22.0 | 0.00 | 0.00 | 0.00 | 31 | 1016.9 |
| 20260905075938 | 73 | 160 | 9.0 | 17.0 | 0.00 | 0.00 | 0.00 | 32 | 1016.9 |
| 20260905075433 | 73 | 167 | 10.0 | 13.0 | 0.00 | 0.00 | 0.00 | 32 | 1017.0 |
| 20260905074932 | 73 | 148 | 11.0 | 16.0 | 0.00 | 0.00 | 0.00 | 32 | 1016.8 |
| 20260905074427 | 73 | 157 | 14.0 | 15.0 | 0.00 | 0.00 | 0.00 | 32 | 1016.8 |
| 20260905073923 | 74 | 155 | 11.0 | 16.0 | 0.00 | 0.00 | 0.00 | 31 | 1016.9 |
| 20260905073418 | 74 | 168 | 10.0 | 19.0 | 0.00 | 0.00 | 0.00 | 31 | 1016.8 |
| 20260905072914 | 73 | 161 | 7.0 | 17.0 | 0.00 | 0.00 | 0.00 | 32 | 1016.7 |
| 20260905072409 | 74 | 145 | 11.0 | 19.0 | 0.00 | 0.00 | 0.00 | 31 | 1016.6 |
| 20260905071904 | 74 | 141 | 15.0 | 18.0 | 0.00 | 0.00 | 0.00 | 32 | 1016.7 |
| 20260905071401 | 74 | 163 | 15.0 | 21.0 | 0.00 | 0.00 | 0.00 | 32 | 1016.4 |
| 20260905070900 | 74 | 139 | 15.0 | 19.0 | 0.00 | 0.00 | 0.00 | 32 | 1016.4 |
| 20260905070357 | 74 | 159 | 8.0 | 22.0 | 0.00 | 0.00 | 0.00 | 32 | 1016.6 |
| 20260905065856 | 74 | 130 | 15.0 | 21.0 | 0.00 | 0.00 | 0.00 | 31 | 1016.3 |
| 20260905065354 | 74 | 156 | 6.0 | 15.0 | 0.00 | 0.00 | 0.00 | 31 | 1016.0 |
| 20260905064850 | 74 | 136 | 7.0 | 17.0 | 0.00 | 0.00 | 0.00 | 31 | 1016.3 |
| 20260905064345 | 74 | 162 | 14.0 | 19.0 | 0.00 | 0.00 | 0.00 | 31 | 1016.1 |
| 20260905063843 | 74 | 170 | 9.0 | 17.0 | 0.00 | 0.00 | 0.00 | 31 | 1016.1 |
| 20260905063335 | 74 | 161 | 4.0 | 14.0 | 0.00 | 0.00 | 0.00 | 31 | 1016.1 |
| 20260905062830 | 74 | 159 | 13.0 | 15.0 | 0.00 | 0.00 | 0.00 | 30 | 1016.1 |
| 20260905062324 | 75 | 161 | 10.0 | 17.0 | 0.00 | 0.00 | 0.00 | 30 | 1016.1 |
| 20260905061819 | 75 | 171 | 8.0 | 15.0 | 0.00 | 0.00 | 0.00 | 30 | 1016.0 |
| 20260905061314 | 75 | 148 | 13.0 | 19.0 | 0.00 | 0.00 | 0.00 | 30 | 1016.1 |
| 20260905060808 | 75 | 162 | 11.0 | 18.0 | 0.00 | 0.00 | 0.00 | 29 | 1015.7 |
| 20260905060305 | 75 | 152 | 8.0 | 13.0 | 0.00 | 0.00 | 0.00 | 29 | 1015.9 |
| 20260905055804 | 75 | 159 | 9.0 | 17.0 | 0.00 | 0.00 | 0.00 | 30 | 1015.6 |
| 20260905055259 | 75 | 160 | 8.0 | 15.0 | 0.00 | 0.00 | 0.00 | 29 | 1015.7 |
| 20260905054759 | 75 | 150 | 10.0 | 19.0 | 0.00 | 0.00 | 0.00 | 29 | 1015.5 |
| 20260905054255 | 75 | 138 | 14.0 | 16.0 | 0.00 | 0.00 | 0.00 | 29 | 1015.5 |
| 20260905053754 | 75 | 160 | 11.0 | 14.0 | 0.00 | 0.00 | 0.00 | 29 | 1015.6 |
| 20260905053250 | 75 | 177 | 8.0 | 12.0 | 0.00 | 0.00 | 0.00 | 30 | 1015.4 |
| 20260905052749 | 75 | 143 | 7.0 | 13.0 | 0.00 | 0.00 | 0.00 | 29 | 1015.2 |
| 20260905052239 | 75 | 152 | 14.0 | 16.0 | 0.00 | 0.00 | 0.00 | 29 | 1015.2 |
| 20260905051738 | 75 | 147 | 5.0 | 13.0 | 0.00 | 0.00 | 0.00 | 29 | 1015.2 |
| 20260905051236 | 75 | 158 | 9.0 | 14.0 | 0.00 | 0.00 | 0.00 | 29 | 1015.4 |
| 20260905050731 | 76 | 149 | 8.0 | 11.0 | 0.00 | 0.00 | 0.00 | 28 | 1015.1 |
| 20260905050228 | 76 | 164 | 11.0 | 21.0 | 0.00 | 0.00 | 0.00 | 28 | 1015.2 |
| 20260905045727 | 76 | 184 | 11.0 | 15.0 | 0.00 | 0.00 | 0.00 | 28 | 1015.1 |
| 20260905045222 | 76 | 170 | 10.0 | 15.0 | 0.00 | 0.00 | 0.00 | 28 | 1014.9 |
| 20260905044717 | 76 | 139 | 16.0 | 17.0 | 0.00 | 0.00 | 0.00 | 28 | 1014.9 |
| 20260905044213 | 76 | 150 | 11.0 | 15.0 | 0.00 | 0.00 | 0.00 | 28 | 1014.9 |
| 20260905043712 | 76 | 141 | 11.0 | 12.0 | 0.00 | 0.00 | 0.00 | 28 | 1015.2 |
| 20260905043207 | 76 | 157 | 7.0 | 13.0 | 0.00 | 0.00 | 0.00 | 28 | 1014.9 |
| 20260905042707 | 77 | 166 | 10.0 | 15.0 | 0.00 | 0.00 | 0.00 | 28 | 1014.9 |
| 20260905042206 | 77 | 161 | 6.0 | 11.0 | 0.00 | 0.00 | 0.00 | 28 | 1015.2 |
| 20260905041702 | 77 | 148 | 12.0 | 16.0 | 0.00 | 0.00 | 0.00 | 28 | 1015.2 |
| 20260905041157 | 77 | 156 | 10.0 | 13.0 | 0.00 | 0.00 | 0.00 | 28 | 1015.1 |
| 20260905040652 | 77 | 156 | 11.0 | 18.0 | 0.00 | 0.00 | 0.00 | 28 | 1015.1 |
| 20260905040151 | 77 | 146 | 8.0 | 17.0 | 0.00 | 0.00 | 0.00 | 28 | 1014.8 |
| 20260905035646 | 77 | 151 | 8.0 | 13.0 | 0.00 | 0.00 | 0.00 | 28 | 1014.8 |
| 20260905035143 | 77 | 164 | 12.0 | 18.0 | 0.00 | 0.00 | 0.00 | 28 | 1015.1 |
| 20260905034638 | 77 | 144 | 13.0 | 15.0 | 0.00 | 0.00 | 0.00 | 28 | 1014.5 |
| 20260905034137 | 78 | 142 | 9.0 | 12.0 | 0.00 | 0.00 | 0.00 | 29 | 1014.9 |
| 20260905033636 | 78 | 142 | 9.0 | 15.0 | 0.00 | 0.00 | 0.00 | 28 | 1014.6 |
| 20260905033133 | 77 | 143 | 7.0 | 15.0 | 0.00 | 0.00 | 0.00 | 28 | 1014.8 |
| 20260905032632 | 77 | 147 | 11.0 | 14.0 | 0.00 | 0.00 | 0.00 | 29 | 1014.5 |
| 20260905032131 | 78 | 195 | 9.0 | 11.0 | 0.00 | 0.00 | 0.00 | 29 | 1014.5 |
| 20260905031628 | 78 | 190 | 7.0 | 11.0 | 0.00 | 0.00 | 0.00 | 29 | 1014.7 |
| 20260905031124 | 78 | 179 | 4.0 | 12.0 | 0.00 | 0.00 | 0.00 | 29 | 1014.4 |
| 20260905030624 | 78 | 177 | 10.0 | 12.0 | 0.00 | 0.00 | 0.00 | 28 | 1014.4 |
| 20260905030119 | 79 | 173 | 7.0 | 13.0 | 0.00 | 0.00 | 0.00 | 28 | 1014.2 |
| 20260905025614 | 79 | 163 | 9.0 | 14.0 | 0.00 | 0.00 | 0.00 | 28 | 1014.2 |
| 20260905025109 | 79 | 195 | 10.0 | 16.0 | 0.00 | 0.00 | 0.00 | 28 | 1014.0 |
| 20260905024605 | 79 | 127 | 13.0 | 18.0 | 0.00 | 0.00 | 0.00 | 29 | 1014.0 |
| 20260905024100 | 79 | 127 | 6.0 | 16.0 | 0.00 | 0.00 | 0.00 | 28 | 1013.9 |
| 20260905023555 | 79 | 139 | 13.0 | 15.0 | 0.00 | 0.00 | 0.00 | 28 | 1013.7 |
| 20260905023055 | 79 | 160 | 8.0 | 15.0 | 0.00 | 0.00 | 0.00 | 28 | 1013.8 |
| 20260905022555 | 79 | 154 | 7.0 | 14.0 | 0.00 | 0.00 | 0.00 | 28 | 1013.4 |
| 20260905022050 | 80 | 183 | 9.0 | 13.0 | 0.00 | 0.00 | 0.00 | 27 | 1013.6 |
| 20260905021550 | 80 | 157 | 5.0 | 9.0 | 0.00 | 0.00 | 0.00 | 27 | 1013.7 |
| 20260905021045 | 80 | 159 | 13.0 | 17.0 | 0.00 | 0.00 | 0.00 | 26 | 1013.6 |
| 20260905020544 | 81 | 148 | 9.0 | 17.0 | 0.00 | 0.00 | 0.00 | 25 | 1013.3 |
| 20260905020040 | 81 | 157 | 6.0 | 9.0 | 0.00 | 0.00 | 0.00 | 25 | 1013.4 |
| 20260905015538 | 81 | 175 | 7.0 | 21.0 | 0.00 | 0.00 | 0.00 | 24 | 1013.3 |
| 20260905015033 | 82 | 151 | 8.0 | 16.0 | 0.00 | 0.00 | 0.00 | 24 | 1013.2 |
| 20260905014528 | 82 | 158 | 8.0 | 23.0 | 0.00 | 0.00 | 0.00 | 24 | 1013.2 |
| 20260905014024 | 82 | 180 | 6.0 | 17.0 | 0.00 | 0.00 | 0.00 | 23 | 1013.2 |
| 20260905013520 | 82 | 166 | 10.0 | 13.0 | 0.00 | 0.00 | 0.00 | 23 | 1013.1 |
| 20260905013016 | 82 | 163 | 12.0 | 15.0 | 0.00 | 0.00 | 0.00 | 23 | 1013.2 |
| 20260905012509 | 83 | 164 | 17.0 | 17.0 | 0.00 | 0.00 | 0.00 | 23 | 1013.1 |
| 20260905012007 | 83 | 151 | 6.0 | 16.0 | 0.00 | 0.00 | 0.00 | 23 | 1013.3 |
| 20260905011502 | 83 | 209 | 10.0 | 15.0 | 0.00 | 0.00 | 0.00 | 23 | 1013.2 |
| 20260905010957 | 84 | 157 | 6.0 | 15.0 | 0.00 | 0.00 | 0.00 | 23 | 1013.0 |
| 20260905010457 | 85 | 150 | 6.0 | 12.0 | 0.00 | 0.00 | 0.00 | 22 | 1013.1 |
| 20260905005953 | 85 | 262 | 5.0 | 16.0 | 0.00 | 0.00 | 0.00 | 22 | 1013.1 |
| 20260905005449 | 85 | 163 | 11.0 | 12.0 | 0.00 | 0.00 | 0.00 | 22 | 1013.1 |
| 20260905004944 | 85 | 196 | 11.0 | 17.0 | 0.00 | 0.00 | 0.00 | 23 | 1013.2 |
| 20260905004439 | 85 | 179 | 12.0 | 14.0 | 0.00 | 0.00 | 0.00 | 22 | 1013.1 |
| 20260905003934 | 85 | 204 | 5.0 | 11.0 | 0.00 | 0.00 | 0.00 | 22 | 1013.0 |
| 20260905003430 | 86 | 170 | 7.0 | 9.0 | 0.00 | 0.00 | 0.00 | 21 | 1013.1 |
| 20260905002926 | 87 | 177 | 10.0 | 14.0 | 0.00 | 0.00 | 0.00 | 21 | 1013.0 |
| 20260905002426 | 87 | 173 | 10.0 | 18.0 | 0.00 | 0.00 | 0.00 | 20 | 1013.1 |
| 20260905001925 | 89 | 177 | 9.0 | 16.0 | 0.00 | 0.00 | 0.00 | 20 | 1012.9 |
| 20260905001420 | 88 | 205 | 9.0 | 14.0 | 0.00 | 0.00 | 0.00 | 19 | 1013.1 |
| 20260905000915 | 87 | 213 | 9.0 | 16.0 | 0.00 | 0.00 | 0.00 | 19 | 1013.2 |
| 20260905000410 | 87 | 194 | 1.0 | 24.0 | 0.00 | 0.00 | 0.00 | 20 | 1013.1 |
| 20260904235906 | 86 | 180 | 5.0 | 19.0 | 0.00 | 0.00 | 0.00 | 19 | 1013.2 |
| 20260904235402 | 88 | 192 | 4.0 | 17.0 | 0.00 | 0.00 | 0.00 | 18 | 1013.3 |
| 20260904234901 | 89 | 210 | 7.0 | 13.0 | 0.00 | 0.00 | 0.00 | 19 | 1013.2 |
| 20260904234356 | 88 | 151 | 6.0 | 13.0 | 0.00 | 0.00 | 0.00 | 18 | 1013.3 |
| 20260904233852 | 88 | 180 | 9.0 | 16.0 | 0.00 | 0.00 | 0.00 | 18 | 1013.4 |
| 20260904233347 | 88 | 172 | 13.0 | 19.0 | 0.00 | 0.00 | 0.00 | 18 | 1013.2 |
| 20260904232844 | 88 | 190 | 7.0 | 19.0 | 0.00 | 0.00 | 0.00 | 18 | 1013.3 |
| 20260904232340 | 87 | 156 | 12.0 | 18.0 | 0.00 | 0.00 | 0.00 | 19 | 1013.1 |
| 20260904231837 | 86 | 196 | 9.0 | 18.0 | 0.00 | 0.00 | 0.00 | 19 | 1013.6 |
| 20260904231336 | 85 | 163 | 20.0 | 26.0 | 0.00 | 0.00 | 0.00 | 19 | 1013.3 |
| 20260904230832 | 85 | 147 | 16.0 | 20.0 | 0.00 | 0.00 | 0.00 | 19 | 1013.4 |